Location: Calberlah
(52.4230°N, 10.6240°E)
Time: 06:34:21
(UTC+00:00)

Sich 1 - Pass Details

Date: 19 May 2025
Orbit: 574 x 603 km, 82.5° (Epoch: 14 June)

Event Time Altitude Azimuth Distance (km) Brightness Sun altitude
Rises 22:30:20 0° 348° (NNW) 2,840 8.3 -17.0°
Reaches altitude 10° 22:32:34 10° 348° (NNW) 1,929 6.9 -17.0°
Maximum altitude 22:36:49 81° 261° (W) 599 2.9 -17.1°
Enters shadow 22:38:29 36° 178° (S) 933 3.4 -17.2°
